Location: Petruro
(41.0333°N, 14.7833°E)
Time: 06:47:45
(UTC+00:00)

USA 305 - Visible Passes

Search period start: 26 October 2021 00:00
Search period end: 05 November 2021 00:00
Orbit: 558 x 576 km, 54.0° (Epoch: 22 October)

Date Brightness Start Highest point End Pass type
(mag) Time Alt. Az. Time Alt. Az. Time Alt. Az.
26 Oct 5.4 02:29:35 20° ENE 02:29:35 20° ENE 02:31:00 10° ENE visible
26 Oct 3.7 04:05:37 27° WNW 04:06:57 33° NNW 04:10:47 10° NE visible
27 Oct 5.5 02:30:12 18° ENE 02:30:12 18° ENE 02:31:22 10° NE visible
27 Oct 4.1 04:06:15 23° NW 04:07:21 26° NNW 04:10:55 10° NNE visible
28 Oct 5.6 02:30:44 16° NE 02:30:44 16° NE 02:31:37 10° NE visible
28 Oct 4.4 04:06:47 19° NW 04:07:48 21° NNW 04:11:03 10° NNE visible
29 Oct 5.7 02:31:11 14° NE 02:31:11 14° NE 02:31:49 10° NE visible
29 Oct 4.6 04:07:13 16° NW 04:08:16 18° NNW 04:11:11 10° NNE visible
30 Oct 5.8 02:31:34 12° NE 02:31:34 12° NE 02:31:57 10° NE visible
30 Oct 4.8 04:07:36 14° NNW 04:08:45 16° NNW 04:11:22 10° NNE visible
31 Oct 5.9 02:31:54 11° NE 02:31:54 11° NE 02:32:03 10° NE visible
31 Oct 5.0 04:07:56 13° NNW 04:09:16 14° N 04:11:38 10° NNE visible
01 Nov 5.1 04:08:13 12° NNW 04:09:47 14° N 04:12:00 10° NNE visible
02 Nov 5.1 04:08:30 11° NNW 04:10:17 14° N 04:12:31 10° NE visible
03 Nov 5.1 04:08:45 11° NNW 04:10:47 15° N 04:13:09 10° NE visible
04 Nov 5.1 04:09:00 11° NNW 04:11:14 16° NNE 04:13:52 10° NE visible
